WA2TQI Weather Reports


time (UTC)temp
C
wind
direction
speed
KPH
gust
KPH
rain 1hr
cm
rain 24hr
cm
rain mn
cm
humidity
%
barometer
mb
20260505101745 16 193 3.2 6.4 0.00 0.00 0.00 82 1012.2
20260505101241 16 294 1.6 6.4 0.00 0.00 0.00 82 1012.1
20260505100737 16 254 9.7 12.9 0.00 0.00 0.00 81 1012.1
20260505100234 16 187 1.6 12.9 0.00 0.00 0.00 81 1012.2
20260505095729 17 194 6.4 9.7 0.00 0.00 0.00 81 1012.0
20260505095228 17 233 3.2 14.5 0.00 0.00 0.00 80 1011.9
20260505094723 17 232 0.0 1.6 0.00 0.00 0.00 80 1011.9
20260505094220 17 183 3.2 11.3 0.00 0.00 0.00 80 1011.9
20260505093716 17 181 6.4 12.9 0.00 0.00 0.00 79 1012.0
20260505093214 17 227 1.6 4.8 0.00 0.00 0.00 78 1012.1
20260505092710 17 202 3.2 9.7 0.00 0.00 0.00 77 1012.0
20260505092209 17 156 1.6 9.7 0.00 0.00 0.00 78 1012.0
20260505091706 17 126 1.6 3.2 0.00 0.00 0.00 80 1012.1
20260505091204 17 205 1.6 14.5 0.00 0.00 0.00 81 1011.9
20260505090701 17 22 0.0 9.7 0.00 0.00 0.00 81 1011.7
20260505090159 17 202 9.7 12.9 0.00 0.00 0.00 79 1011.7
20260505085656 17 261 11.3 16.1 0.00 0.00 0.00 79 1011.3
20260505085154 17 228 6.4 9.7 0.00 0.00 0.00 79 1011.4
20260505084651 17 284 6.4 9.7 0.00 0.00 0.00 79 1011.6
20260505084150 16 234 3.2 9.7 0.00 0.00 0.00 79 1011.5
20260505083647 16 165 3.2 6.4 0.00 0.00 0.00 81 1011.8
20260505083143 16 139 0.0 1.6 0.00 0.00 0.00 83 1011.7
20260505082639 16 70 1.6 1.6 0.00 0.00 0.00 82 1011.6
20260505082137 16 111 1.6 4.8 0.00 0.00 0.00 82 1012.0
20260505081632 16 186 6.4 9.7 0.00 0.00 0.00 83 1012.0
20260505081130 16 157 3.2 4.8 0.00 0.00 0.00 83 1011.8
20260505080627 16 177 0.0 1.6 0.00 0.00 0.00 83 1011.9
20260505080123 16 246 0.0 3.2 0.00 0.00 0.00 82 1011.8
20260505075619 16 37 0.0 3.2 0.00 0.00 0.00 82 1011.8
20260505075116 16 184 0.0 6.4 0.00 0.00 0.00 82 1011.8
20260505074613 16 98 0.0 4.8 0.00 0.00 0.00 82 1011.7
20260505074110 16 191 0.0 3.2 0.00 0.00 0.00 83 1011.7
20260505073608 16 185 1.6 1.6 0.00 0.00 0.00 82 1011.9
20260505073106 16 132 1.6 9.7 0.00 0.00 0.00 82 1011.8
20260505072601 15 180 1.6 3.2 0.00 0.00 0.00 83 1011.9
20260505072058 15 51 0.0 1.6 0.00 0.00 0.00 83 1011.8
20260505071553 15 78 0.0 0.0 0.00 0.00 0.00 83 1011.9
20260505071052 15 52 0.0 0.0 0.00 0.00 0.00 83 1011.7
20260505070549 15 123 0.0 0.0 0.00 0.00 0.00 83 1011.7
20260505070045 15 135 0.0 0.0 0.00 0.00 0.00 83 1011.8
20260505065541 15 151 0.0 1.6 0.00 0.00 0.00 82 1011.8
20260505065038 15 162 1.6 3.2 0.00 0.00 0.00 82 1011.8
20260505064535 15 162 0.0 3.2 0.00 0.00 0.00 83 1011.6
20260505064033 15 131 0.0 0.0 0.00 0.00 0.00 82 1011.8
20260505063530 15 80 0.0 0.0 0.00 0.00 0.00 81 1011.8
20260505063026 15 69 0.0 1.6 0.00 0.00 0.00 81 1011.8
20260505062523 15 127 0.0 1.6 0.00 0.00 0.00 80 1011.7
20260505062020 15 110 0.0 0.0 0.00 0.00 0.00 81 1011.7
20260505061518 15 238 0.0 0.0 0.00 0.00 0.00 80 1011.6
20260505061015 15 121 0.0 3.2 0.00 0.00 0.00 80 1011.7
20260505060512 16 197 0.0 0.0 0.00 0.00 0.00 80 1011.9
20260505060009 16 145 0.0 4.8 0.00 0.00 0.00 79 1011.8
20260505055504 16 146 0.0 0.0 0.00 0.00 0.00 77 1011.9
20260505055001 16 322 1.6 3.2 0.00 0.00 0.00 77 1011.8
20260505054459 16 156 0.0 3.2 0.00 0.00 0.00 76 1011.8
20260505053956 16 223 0.0 6.4 0.00 0.00 0.00 75 1011.8
20260505053453 16 223 3.2 4.8 0.00 0.00 0.00 75 1011.9
20260505052950 16 201 1.6 6.4 0.00 0.00 0.00 75 1011.8
20260505052447 17 218 1.6 3.2 0.00 0.00 0.00 74 1011.7
20260505051944 17 122 0.0 3.2 0.00 0.00 0.00 74 1011.8
20260505051441 17 279 0.0 3.2 0.00 0.00 0.00 74 1012.0
20260505050939 17 294 0.0 11.3 0.00 0.00 0.00 74 1011.9
20260505050437 16 186 3.2 9.7 0.00 0.00 0.00 74 1011.9
20260505041405 16 155 3.2 9.7 0.00 0.00 0.00 74 1011.9
20260505040901 16 193 3.2 11.3 0.00 0.00 0.00 73 1012.0
20260505040359 16 230 3.2 6.4 0.00 0.00 0.00 74 1012.0
20260505035856 16 196 3.2 9.7 0.00 0.00 0.00 73 1012.1
20260505035351 16 169 3.2 9.7 0.00 0.00 0.00 74 1011.9
20260505034850 16 125 3.2 4.8 0.00 0.00 0.00 74 1011.9
20260505034346 16 162 1.6 1.6 0.00 0.00 0.00 75 1012.0
20260505033843 17 120 1.6 4.8 0.00 0.00 0.00 73 1011.9
20260505033340 17 159 1.6 11.3 0.00 0.00 0.00 73 1012.0
20260505032838 17 139 3.2 9.7 0.00 0.00 0.00 74 1011.9
20260505032334 17 119 0.0 6.4 0.00 0.00 0.00 74 1011.9
20260505031831 17 160 1.6 1.6 0.00 0.00 0.00 73 1011.8
20260505031328 17 149 4.8 6.4 0.00 0.00 0.00 72 1011.9
20260505030825 17 177 3.2 9.7 0.00 0.00 0.00 72 1012.0
20260505030321 17 134 3.2 11.3 0.00 0.00 0.00 72 1011.9
20260505025817 17 157 3.2 12.9 0.00 0.00 0.00 71 1012.0
20260505025314 16 175 1.6 4.8 0.00 0.00 0.00 71 1012.0
20260505024813 16 159 3.2 6.4 0.00 0.00 0.00 70 1012.2
20260505024309 16 137 0.0 9.7 0.00 0.00 0.00 70 1012.1
20260505023807 16 132 0.0 4.8 0.00 0.00 0.00 69 1012.2
20260505023303 17 177 3.2 6.4 0.00 0.00 0.00 68 1012.2
20260505022801 16 118 1.6 3.2 0.00 0.00 0.00 68 1012.2
20260505022258 17 149 3.2 3.2 0.00 0.00 0.00 67 1012.0
20260505021755 17 186 3.2 3.2 0.00 0.00 0.00 66 1012.2
20260505021252 17 168 3.2 4.8 0.00 0.00 0.00 65 1012.1
20260505020748 17 205 3.2 4.8 0.00 0.00 0.00 64 1012.1
20260505020242 17 189 4.8 4.8 0.00 0.00 0.00 63 1012.3
20260505015740 17 214 3.2 6.4 0.00 0.00 0.00 63 1012.0
20260505015237 17 87 1.6 3.2 0.00 0.00 0.00 62 1012.0
20260505014734 17 182 1.6 6.4 0.00 0.00 0.00 61 1012.0
20260505014231 17 118 3.2 3.2 0.00 0.00 0.00 62 1012.1
20260505013728 17 152 1.6 4.8 0.00 0.00 0.00 61 1012.1
20260505013225 17 130 1.6 1.6 0.00 0.00 0.00 61 1012.1
20260505012723 17 181 3.2 3.2 0.00 0.00 0.00 61 1011.9
20260505012220 17 164 1.6 3.2 0.00 0.00 0.00 61 1011.9
20260505011716 17 113 0.0 0.0 0.00 0.00 0.00 60 1011.9
20260505011214 17 171 0.0 0.0 0.00 0.00 0.00 60 1012.0
20260505010709 17 142 0.0 3.2 0.00 0.00 0.00 58 1012.0
20260505010206 18 169 0.0 3.2 0.00 0.00 0.00 58 1011.9
20260505005701 18 152 0.0 1.6 0.00 0.00 0.00 58 1011.6
20260505005159 18 195 3.2 3.2 0.00 0.00 0.00 56 1011.8
20260505004656 18 163 0.0 1.6 0.00 0.00 0.00 57 1011.6
20260505004153 18 174 3.2 6.4 0.00 0.00 0.00 56 1011.4
20260505003650 18 107 1.6 1.6 0.00 0.00 0.00 56 1011.6
20260505003147 18 141 0.0 1.6 0.00 0.00 0.00 56 1011.6
20260505002643 18 157 3.2 3.2 0.00 0.00 0.00 55 1011.6
20260505002141 18 128 0.0 1.6 0.00 0.00 0.00 56 1011.4
20260505001638 19 117 0.0 1.6 0.00 0.00 0.00 54 1011.2
20260505001136 19 161 0.0 1.6 0.00 0.00 0.00 53 1011.2
20260505000633 20 165 3.2 3.2 0.00 0.00 0.00 52 1011.2
20260505000131 20 160 1.6 4.8 0.00 0.00 0.00 52 1011.3
20260504235627 20 137 1.6 3.2 0.00 0.00 0.00 52 1011.2
20260504235123 20 170 1.6 9.7 0.00 0.00 0.00 52 1011.1
20260504234621 20 153 1.6 3.2 0.00 0.00 0.00 52 1011.1
20260504234118 20 208 0.0 1.6 0.00 0.00 0.00 51 1011.1
20260504233614 20 268 0.0 4.8 0.00 0.00 0.00 50 1011.1
20260504233110 21 161 1.6 4.8 0.00 0.00 0.00 49 1011.1
20260504232608 21 149 6.4 9.7 0.00 0.00 0.00 49 1011.0
20260504232105 21 195 3.2 12.9 0.00 0.00 0.00 48 1011.1
20260504231601 21 206 1.6 9.7 0.00 0.00 0.00 47 1011.0
20260504231057 21 170 3.2 6.4 0.00 0.00 0.00 47 1011.1
20260504230553 21 189 1.6 4.8 0.00 0.00 0.00 47 1011.2
20260504230052 21 191 1.6 6.4 0.00 0.00 0.00 47 1011.1
20260504225549 21 262 3.2 9.7 0.00 0.00 0.00 47 1010.9
20260504225046 21 219 3.2 4.8 0.00 0.00 0.00 45 1011.2
20260504224542 21 152 4.8 11.3 0.00 0.00 0.00 46 1010.9
20260504224040 21 168 1.6 6.4 0.00 0.00 0.00 45 1011.1
20260504223537 21 66 0.0 4.8 0.00 0.00 0.00 45 1011.1
20260504223032 21 133 6.4 14.5 0.00 0.00 0.00 45 1010.9
20260504222529 22 170 1.6 9.7 0.00 0.00 0.00 45 1011.0
20260504222027 22 177 6.4 11.3 0.00 0.00 0.00 45 1010.9
20260504221524 22 207 3.2 12.9 0.00 0.00 0.00 45 1011.1
20260504221021 22 203 3.2 12.9 0.00 0.00 0.00 44 1011.2
20260504220517 22 270 3.2 6.4 0.00 0.00 0.00 45 1011.1
20260504220014 22 199 8.0 11.3 0.00 0.00 0.00 44 1011.1
20260504215510 22 345 3.2 4.8 0.00 0.00 0.00 45 1011.1
20260504215008 22 131 3.2 4.8 0.00 0.00 0.00 44 1011.1
20260504214504 22 243 4.8 6.4 0.00 0.00 0.00 44 1011.2
20260504214000 22 220 0.0 6.4 0.00 0.00 0.00 45 1011.3
20260504213456 22 208 1.6 11.3 0.00 0.00 0.00 44 1011.3
20260504212954 22 169 6.4 9.7 0.00 0.00 0.00 43 1011.2
20260504212450 22 90 1.6 6.4 0.00 0.00 0.00 44 1011.1
20260504211948 22 215 6.4 12.9 0.00 0.00 0.00 44 1011.2
20260504211444 22 309 1.6 6.4 0.00 0.00 0.00 44 1011.2
20260504210942 22 171 3.2 14.5 0.00 0.00 0.00 44 1011.1
20260504210438 22 216 4.8 6.4 0.00 0.00 0.00 43 1011.1
20260504205935 22 183 8.0 11.3 0.00 0.00 0.00 43 1011.2
20260504205433 22 102 6.4 12.9 0.00 0.00 0.00 43 1011.4
20260504204931 22 194 3.2 11.3 0.00 0.00 0.00 43 1011.2
20260504204429 22 306 1.6 6.4 0.00 0.00 0.00 44 1011.1
20260504203928 22 167 3.2 14.5 0.00 0.00 0.00 43 1011.4
20260504203425 22 295 8.0 16.1 0.00 0.00 0.00 42 1011.2
20260504202920 22 53 3.2 9.7 0.00 0.00 0.00 42 1011.2
20260504202417 22 167 3.2 16.1 0.00 0.00 0.00 42 1011.1
20260504201914 22 22 1.6 11.3 0.00 0.00 0.00 42 1011.2
20260504201412 23 5 6.4 12.9 0.00 0.00 0.00 41 1011.1
20260504200909 22 153 9.7 12.9 0.00 0.00 0.00 41 1011.2
20260504200406 23 109 6.4 12.9 0.00 0.00 0.00 42 1011.2
20260504195902 23 328 0.0 11.3 0.00 0.00 0.00 42 1011.2
20260504195358 23 162 1.6 4.8 0.00 0.00 0.00 42 1011.2
20260504194855 23 241 3.2 6.4 0.00 0.00 0.00 42 1011.4
20260504194350 23 139 3.2 11.3 0.00 0.00 0.00 42 1011.6
20260504193847 23 45 6.4 16.1 0.00 0.00 0.00 41 1011.5
20260504193344 23 175 3.2 14.5 0.00 0.00 0.00 41 1011.7
20260504192843 22 170 1.6 4.8 0.00 0.00 0.00 43 1011.6
20260504192340 23 198 8.0 11.3 0.00 0.00 0.00 41 1011.8
20260504191838 22 228 6.4 6.4 0.00 0.00 0.00 42 1011.8
20260504191336 22 193 9.7 16.1 0.00 0.00 0.00 41 1011.9
20260504190831 23 105 0.0 3.2 0.00 0.00 0.00 42 1012.0
20260504190327 22 210 6.4 11.3 0.00 0.00 0.00 43 1012.1
20260504185824 22 200 9.7 16.1 0.00 0.00 0.00 42 1012.0
20260504185321 22 245 6.4 12.9 0.00 0.00 0.00 44 1012.4
20260504184817 22 113 8.0 17.7 0.00 0.00 0.00 43 1012.3
20260504184313 22 172 8.0 12.9 0.00 0.00 0.00 42 1012.5
20260504183809 22 304 3.2 6.4 0.00 0.00 0.00 43 1012.5
20260504183306 22 252 1.6 11.3 0.00 0.00 0.00 42 1012.6
20260504182804 22 149 1.6 9.7 0.00 0.00 0.00 43 1012.8
20260504182301 22 258 12.9 17.7 0.00 0.00 0.00 42 1012.7
20260504181759 21 222 4.8 12.9 0.00 0.00 0.00 43 1012.8
20260504181255 22 289 4.8 29.0 0.00 0.00 0.00 42 1012.9
20260504180755 22 193 4.8 17.7 0.00 0.00 0.00 42 1012.9
20260504180253 21 212 4.8 14.5 0.00 0.00 0.00 43 1013.1
20260504175750 21 201 9.7 22.5 0.00 0.00 0.00 43 1013.0
20260504175247 22 163 9.7 17.7 0.00 0.00 0.00 41 1013.3
20260504174745 22 182 16.1 16.1 0.00 0.00 0.00 41 1013.1
20260504174243 21 270 4.8 11.3 0.00 0.00 0.00 44 1013.3
20260504173739 21 13 0.0 6.4 0.00 0.00 0.00 44 1013.4
20260504173236 21 197 3.2 9.7 0.00 0.00 0.00 42 1013.6
20260504172733 21 207 9.7 12.9 0.00 0.00 0.00 42 1013.4
20260504172229 21 140 4.8 16.1 0.00 0.00 0.00 43 1013.5
20260504171725 21 20 4.8 6.4 0.00 0.00 0.00 42 1013.7
20260504171223 21 187 6.4 16.1 0.00 0.00 0.00 43 1013.7
20260504170719 21 192 6.4 12.9 0.00 0.00 0.00 44 1013.7
20260504170217 21 225 6.4 11.3 0.00 0.00 0.00 43 1013.8
20260504160135 21 11 0.0 12.9 0.00 0.00 0.00 45 1014.8
20260504151102 20 152 3.2 14.5 0.00 0.00 0.00 49 1015.0
20260504150600 19 175 3.2 4.8 0.00 0.00 0.00 51 1014.8
20260504141026 18 288 3.2 3.2 0.00 0.00 0.00 59 1015.3
20260504140522 18 238 3.2 9.7 0.00 0.00 0.00 61 1015.3
20260504130447 15 229 3.2 9.7 0.00 0.00 0.00 69 1015.9
20260504110334 8 146 1.6 1.6 0.00 0.00 0.00 91 1016.6